| time (UTC) | temp F | wind direction | speed knots | gust knots | rain 1hr in | rain 24hr in | rain mn in | humidity % | barometer mb |
| 20260503013752 | 66 | 304 | 0.0 | 0.0 | 0.00 | 0.00 | 0.00 | 34 | 1013.6 |
| 20260503013249 | 66 | 279 | 0.0 | 0.0 | 0.00 | 0.00 | 0.00 | 32 | 1013.6 |
| 20260503012746 | 66 | 215 | 0.0 | 0.0 | 0.00 | 0.00 | 0.00 | 30 | 1013.5 |
| 20260503012244 | 66 | 215 | 0.0 | 0.0 | 0.00 | 0.00 | 0.00 | 31 | 1013.5 |
| 20260503011740 | 66 | 215 | 0.0 | 0.0 | 0.00 | 0.00 | 0.00 | 31 | 1013.6 |
| 20260503011237 | 66 | 215 | 0.0 | 0.0 | 0.00 | 0.00 | 0.00 | 33 | 1013.6 |
| 20260503010733 | 66 | 205 | 0.9 | 0.9 | 0.00 | 0.00 | 0.00 | 31 | 1013.8 |
| 20260503010230 | 66 | 194 | 1.7 | 1.7 | 0.00 | 0.00 | 0.00 | 32 | 1013.7 |
| 20260503005728 | 66 | 184 | 1.7 | 1.7 | 0.00 | 0.00 | 0.00 | 31 | 1013.7 |
| 20260503005225 | 66 | 193 | 1.7 | 1.7 | 0.00 | 0.00 | 0.00 | 32 | 1013.8 |
| 20260503004721 | 67 | 184 | 3.5 | 3.5 | 0.00 | 0.00 | 0.00 | 33 | 1013.8 |
| 20260503004220 | 68 | 128 | 3.5 | 5.2 | 0.00 | 0.00 | 0.00 | 30 | 1013.8 |
| 20260503003717 | 69 | 271 | 1.7 | 1.7 | 0.00 | 0.00 | 0.00 | 28 | 1014.0 |
| 20260503003214 | 68 | 238 | 0.9 | 0.9 | 0.00 | 0.00 | 0.00 | 29 | 1014.0 |
| 20260503002710 | 68 | 190 | 3.5 | 5.2 | 0.00 | 0.00 | 0.00 | 30 | 1013.7 |
| 20260503002207 | 68 | 172 | 3.5 | 5.2 | 0.00 | 0.00 | 0.00 | 31 | 1013.7 |
| 20260503001703 | 68 | 214 | 1.7 | 2.6 | 0.00 | 0.00 | 0.00 | 30 | 1014.2 |
| 20260503001200 | 68 | 175 | 2.6 | 3.5 | 0.00 | 0.00 | 0.00 | 30 | 1014.3 |
| 20260503000658 | 68 | 96 | 1.7 | 2.6 | 0.00 | 0.00 | 0.00 | 31 | 1014.1 |
| 20260503000155 | 69 | 74 | 0.9 | 1.7 | 0.00 | 0.00 | 0.00 | 32 | 1014.1 |
| 20260502235651 | 68 | 197 | 1.7 | 2.6 | 0.00 | 0.00 | 0.00 | 30 | 1014.3 |
| 20260502235149 | 68 | 5 | 0.9 | 0.9 | 0.00 | 0.00 | 0.00 | 30 | 1014.3 |
| 20260502234645 | 67 | 337 | 3.5 | 3.5 | 0.00 | 0.00 | 0.00 | 30 | 1014.4 |
| 20260502234143 | 67 | 73 | 0.0 | 0.0 | 0.00 | 0.00 | 0.00 | 30 | 1014.3 |
| 20260502233638 | 67 | 140 | 5.2 | 7.0 | 0.00 | 0.00 | 0.00 | 32 | 1014.5 |
| 20260502233135 | 67 | 141 | 3.5 | 3.5 | 0.00 | 0.00 | 0.00 | 32 | 1014.4 |
| 20260502232631 | 67 | 93 | 3.5 | 5.2 | 0.00 | 0.00 | 0.00 | 31 | 1014.6 |
| 20260502232129 | 66 | 16 | 1.7 | 2.6 | 0.00 | 0.00 | 0.00 | 32 | 1014.7 |
| 20260502231625 | 66 | 345 | 0.0 | 0.9 | 0.00 | 0.00 | 0.00 | 34 | 1014.8 |
| 20260502231123 | 67 | 14 | 1.7 | 2.6 | 0.00 | 0.00 | 0.00 | 31 | 1014.7 |
| 20260502230621 | 67 | 99 | 7.0 | 7.8 | 0.00 | 0.00 | 0.00 | 32 | 1015.1 |
| 20260502230120 | 68 | 283 | 0.0 | 0.0 | 0.00 | 0.00 | 0.00 | 31 | 1015.1 |
| 20260502225615 | 69 | 340 | 4.3 | 5.2 | 0.00 | 0.00 | 0.00 | 30 | 1014.8 |
| 20260502225112 | 69 | 301 | 0.0 | 0.9 | 0.00 | 0.00 | 0.00 | 29 | 1015.1 |
| 20260502224608 | 68 | 321 | 2.6 | 3.5 | 0.00 | 0.00 | 0.00 | 30 | 1015.1 |
| 20260502224105 | 66 | 332 | 1.7 | 2.6 | 0.00 | 0.00 | 0.00 | 31 | 1015.1 |
| 20260502223603 | 66 | 85 | 1.7 | 2.6 | 0.00 | 0.00 | 0.00 | 32 | 1015.2 |
| 20260502223102 | 68 | 55 | 4.3 | 6.1 | 0.00 | 0.00 | 0.00 | 31 | 1015.3 |
| 20260502222558 | 66 | 63 | 0.9 | 0.9 | 0.00 | 0.00 | 0.00 | 33 | 1015.2 |
| 20260502222054 | 67 | 330 | 1.7 | 2.6 | 0.00 | 0.00 | 0.00 | 32 | 1015.2 |
| 20260502221550 | 66 | 59 | 3.5 | 5.2 | 0.00 | 0.00 | 0.00 | 32 | 1015.4 |
| 20260502221048 | 66 | 75 | 6.1 | 7.0 | 0.00 | 0.00 | 0.00 | 34 | 1015.6 |
| 20260502220543 | 66 | 54 | 1.7 | 1.7 | 0.00 | 0.00 | 0.00 | 35 | 1015.6 |
| 20260502220040 | 66 | 320 | 0.0 | 0.0 | 0.00 | 0.00 | 0.00 | 36 | 1015.8 |
| 20260502215537 | 66 | 358 | 1.7 | 1.7 | 0.00 | 0.00 | 0.00 | 33 | 1015.9 |
| 20260502215034 | 66 | 52 | 0.9 | 1.7 | 0.00 | 0.00 | 0.00 | 35 | 1015.8 |
| 20260502214531 | 65 | 17 | 4.3 | 5.2 | 0.00 | 0.00 | 0.00 | 34 | 1015.8 |
| 20260502214029 | 67 | 46 | 4.3 | 7.0 | 0.00 | 0.00 | 0.00 | 34 | 1015.9 |
| 20260502213525 | 67 | 2 | 3.5 | 5.2 | 0.00 | 0.00 | 0.00 | 32 | 1015.8 |
| 20260502213023 | 67 | 276 | 0.0 | 0.0 | 0.00 | 0.00 | 0.00 | 32 | 1016.3 |
| 20260502212522 | 68 | 237 | 2.6 | 2.6 | 0.00 | 0.00 | 0.00 | 30 | 1015.9 |
| 20260502212019 | 67 | 314 | 0.9 | 1.7 | 0.00 | 0.00 | 0.00 | 31 | 1015.8 |
| 20260502211515 | 67 | 336 | 1.7 | 2.6 | 0.00 | 0.00 | 0.00 | 31 | 1015.9 |
| 20260502211012 | 67 | 308 | 4.3 | 5.2 | 0.00 | 0.00 | 0.00 | 32 | 1016.1 |
| 20260502210509 | 69 | 325 | 3.5 | 3.5 | 0.00 | 0.00 | 0.00 | 30 | 1016.3 |
| 20260502210006 | 67 | 282 | 0.0 | 0.0 | 0.00 | 0.00 | 0.00 | 33 | 1016.0 |
| 20260502205502 | 67 | 313 | 3.5 | 5.2 | 0.00 | 0.00 | 0.00 | 32 | 1016.3 |
| 20260502204959 | 66 | 245 | 0.0 | 0.9 | 0.00 | 0.00 | 0.00 | 33 | 1016.1 |
| 20260502204456 | 68 | 207 | 3.5 | 5.2 | 0.00 | 0.00 | 0.00 | 34 | 1016.3 |
| 20260502203954 | 69 | 235 | 0.9 | 1.7 | 0.00 | 0.00 | 0.00 | 33 | 1016.3 |
| 20260502203451 | 67 | 249 | 3.5 | 3.5 | 0.00 | 0.00 | 0.00 | 33 | 1016.3 |
| 20260502202947 | 68 | 282 | 0.9 | 1.7 | 0.00 | 0.00 | 0.00 | 31 | 1016.6 |
| 20260502202444 | 67 | 281 | 0.9 | 1.7 | 0.00 | 0.00 | 0.00 | 31 | 1016.7 |
| 20260502201942 | 65 | 36 | 0.9 | 0.9 | 0.00 | 0.00 | 0.00 | 34 | 1016.8 |
| 20260502201438 | 64 | 82 | 5.2 | 6.1 | 0.00 | 0.00 | 0.00 | 35 | 1016.8 |
| 20260502200935 | 66 | 36 | 3.5 | 5.2 | 0.00 | 0.00 | 0.00 | 35 | 1016.9 |
| 20260502200430 | 66 | 62 | 6.1 | 7.8 | 0.00 | 0.00 | 0.00 | 34 | 1016.8 |
| 20260502195928 | 65 | 327 | 2.6 | 3.5 | 0.00 | 0.00 | 0.00 | 35 | 1016.7 |
| 20260502195425 | 66 | 112 | 7.0 | 7.0 | 0.00 | 0.00 | 0.00 | 35 | 1016.8 |
| 20260502194922 | 67 | 234 | 0.9 | 1.7 | 0.00 | 0.00 | 0.00 | 33 | 1017.1 |
| 20260502194419 | 67 | 334 | 1.7 | 1.7 | 0.00 | 0.00 | 0.00 | 32 | 1017.1 |
| 20260502193915 | 66 | 180 | 1.7 | 1.7 | 0.00 | 0.00 | 0.00 | 33 | 1016.8 |
| 20260502193412 | 66 | 96 | 1.7 | 2.6 | 0.00 | 0.00 | 0.00 | 34 | 1017.0 |
| 20260502192907 | 65 | 1 | 1.7 | 1.7 | 0.00 | 0.00 | 0.00 | 35 | 1017.1 |
| 20260502192404 | 66 | 10 | 4.3 | 5.2 | 0.00 | 0.00 | 0.00 | 34 | 1017.2 |
| 20260502191902 | 65 | 37 | 0.9 | 1.7 | 0.00 | 0.00 | 0.00 | 37 | 1017.5 |
| 20260502191359 | 65 | 56 | 3.5 | 5.2 | 0.00 | 0.00 | 0.00 | 35 | 1017.5 |
| 20260502190857 | 65 | 203 | 0.9 | 1.7 | 0.00 | 0.00 | 0.00 | 35 | 1017.4 |
| 20260502190354 | 65 | 88 | 5.2 | 7.0 | 0.00 | 0.00 | 0.00 | 36 | 1017.5 |
| 20260502185850 | 66 | 352 | 3.5 | 3.5 | 0.00 | 0.00 | 0.00 | 35 | 1017.5 |
| 20260502185345 | 65 | 297 | 0.0 | 0.0 | 0.00 | 0.00 | 0.00 | 34 | 1017.5 |
| 20260502184843 | 66 | 40 | 2.6 | 3.5 | 0.00 | 0.00 | 0.00 | 36 | 1017.7 |
| 20260502184338 | 63 | 19 | 4.3 | 5.2 | 0.00 | 0.00 | 0.00 | 37 | 1017.8 |
| 20260502183835 | 64 | 44 | 3.5 | 5.2 | 0.00 | 0.00 | 0.00 | 36 | 1017.9 |
| 20260502183331 | 64 | 66 | 2.6 | 2.6 | 0.00 | 0.00 | 0.00 | 37 | 1017.7 |
| 20260502182826 | 64 | 30 | 2.6 | 3.5 | 0.00 | 0.00 | 0.00 | 36 | 1017.8 |
| 20260502182322 | 64 | 17 | 3.5 | 3.5 | 0.00 | 0.00 | 0.00 | 36 | 1018.0 |
| 20260502181819 | 66 | 32 | 5.2 | 6.1 | 0.00 | 0.00 | 0.00 | 35 | 1017.6 |
| 20260502181317 | 66 | 333 | 2.6 | 2.6 | 0.00 | 0.00 | 0.00 | 34 | 1017.9 |
| 20260502180815 | 65 | 67 | 3.5 | 5.2 | 0.00 | 0.00 | 0.00 | 36 | 1018.0 |
| 20260502180312 | 66 | 95 | 3.5 | 3.5 | 0.00 | 0.00 | 0.00 | 33 | 1018.0 |
| 20260502170231 | 64 | 66 | 4.3 | 6.1 | 0.00 | 0.00 | 0.00 | 38 | 1018.6 |
| 20260502164219 | 63 | 8 | 1.7 | 2.6 | 0.00 | 0.00 | 0.00 | 37 | 1018.3 |
| 20260502163714 | 63 | 11 | 2.6 | 3.5 | 0.00 | 0.00 | 0.00 | 37 | 1018.4 |
| 20260502163211 | 64 | 63 | 2.6 | 2.6 | 0.00 | 0.00 | 0.00 | 38 | 1018.4 |
| 20260502162708 | 62 | 307 | 0.0 | 0.9 | 0.00 | 0.00 | 0.00 | 36 | 1018.3 |
| 20260502162204 | 62 | 339 | 2.6 | 2.6 | 0.00 | 0.00 | 0.00 | 38 | 1018.4 |
| 20260502161701 | 61 | 349 | 0.0 | 0.0 | 0.00 | 0.00 | 0.00 | 38 | 1018.6 |
| 20260502161158 | 62 | 38 | 2.6 | 3.5 | 0.00 | 0.00 | 0.00 | 41 | 1018.6 |
| 20260502160656 | 62 | 25 | 1.7 | 3.5 | 0.00 | 0.00 | 0.00 | 39 | 1018.3 |
| 20260502160155 | 61 | 7 | 3.5 | 3.5 | 0.00 | 0.00 | 0.00 | 39 | 1018.7 |
| 20260502152103 | 60 | 54 | 2.6 | 3.5 | 0.00 | 0.00 | 0.00 | 42 | 1018.4 |
| 20260502151600 | 60 | 67 | 4.3 | 6.1 | 0.00 | 0.00 | 0.00 | 41 | 1018.3 |
| 20260502151057 | 59 | 15 | 5.2 | 7.0 | 0.00 | 0.00 | 0.00 | 41 | 1018.4 |
| 20260502150554 | 58 | 36 | 3.5 | 5.2 | 0.00 | 0.00 | 0.00 | 45 | 1018.3 |
| 20260502130439 | 51 | 4 | 4.3 | 5.2 | 0.00 | 0.00 | 0.00 | 51 | 1017.6 |
| 20260502123422 | 49 | 335 | 4.3 | 5.2 | 0.00 | 0.00 | 0.00 | 51 | 1017.5 |
| 20260502122919 | 49 | 351 | 5.2 | 6.1 | 0.00 | 0.00 | 0.00 | 51 | 1017.5 |
| 20260502122415 | 49 | 2 | 3.5 | 5.2 | 0.00 | 0.00 | 0.00 | 51 | 1017.0 |
| 20260502121914 | 48 | 340 | 5.2 | 7.8 | 0.00 | 0.00 | 0.00 | 51 | 1017.0 |
| 20260502121410 | 47 | 351 | 5.2 | 7.0 | 0.00 | 0.00 | 0.00 | 52 | 1016.7 |
| 20260502120908 | 46 | 341 | 5.2 | 6.1 | 0.00 | 0.00 | 0.00 | 54 | 1016.7 |
| 20260502120404 | 47 | 335 | 7.8 | 9.6 | 0.00 | 0.00 | 0.00 | 54 | 1016.4 |
| 20260502115901 | 48 | 341 | 7.8 | 7.8 | 0.00 | 0.00 | 0.00 | 52 | 1016.3 |
| 20260502115358 | 48 | 355 | 7.8 | 8.7 | 0.00 | 0.00 | 0.00 | 52 | 1016.3 |
| 20260502114854 | 48 | 343 | 3.5 | 3.5 | 0.00 | 0.00 | 0.00 | 52 | 1016.1 |
| 20260502114352 | 45 | 335 | 3.5 | 3.5 | 0.00 | 0.00 | 0.00 | 56 | 1016.1 |
| 20260502113848 | 44 | 248 | 0.0 | 0.0 | 0.00 | 0.00 | 0.00 | 59 | 1016.1 |
| 20260502113346 | 45 | 239 | 1.7 | 1.7 | 0.00 | 0.00 | 0.00 | 60 | 1016.4 |
| 20260502112844 | 46 | 291 | 0.0 | 0.0 | 0.00 | 0.00 | 0.00 | 57 | 1016.0 |
| 20260502112341 | 46 | 300 | 1.7 | 1.7 | 0.00 | 0.00 | 0.00 | 57 | 1016.0 |
| 20260502111839 | 45 | 317 | 3.5 | 5.2 | 0.00 | 0.00 | 0.00 | 58 | 1016.0 |
| 20260502111336 | 45 | 297 | 2.6 | 3.5 | 0.00 | 0.00 | 0.00 | 58 | 1015.9 |
| 20260502110834 | 43 | 288 | 1.7 | 1.7 | 0.00 | 0.00 | 0.00 | 62 | 1016.1 |
| 20260502110332 | 43 | 261 | 0.0 | 0.9 | 0.00 | 0.00 | 0.00 | 60 | 1015.9 |
| 20260502105829 | 42 | 259 | 2.6 | 3.5 | 0.00 | 0.00 | 0.00 | 59 | 1015.9 |
| 20260502105326 | 42 | 236 | 1.7 | 1.7 | 0.00 | 0.00 | 0.00 | 59 | 1015.9 |
| 20260502104823 | 42 | 225 | 0.9 | 0.9 | 0.00 | 0.00 | 0.00 | 58 | 1015.9 |
| 20260502104320 | 44 | 229 | 0.9 | 0.9 | 0.00 | 0.00 | 0.00 | 58 | 1015.8 |
| 20260502103818 | 48 | 275 | 0.9 | 1.7 | 0.00 | 0.00 | 0.00 | 51 | 1015.8 |
| 20260502103315 | 46 | 276 | 1.7 | 2.6 | 0.00 | 0.00 | 0.00 | 54 | 1015.7 |
| 20260502102812 | 44 | 246 | 0.9 | 0.9 | 0.00 | 0.00 | 0.00 | 55 | 1015.7 |
| 20260502102308 | 44 | 237 | 0.0 | 0.0 | 0.00 | 0.00 | 0.00 | 57 | 1015.7 |
| 20260502101806 | 45 | 226 | 1.7 | 1.7 | 0.00 | 0.00 | 0.00 | 54 | 1015.6 |
| 20260502101304 | 44 | 235 | 2.6 | 2.6 | 0.00 | 0.00 | 0.00 | 54 | 1015.5 |
| 20260502100802 | 43 | 226 | 2.6 | 2.6 | 0.00 | 0.00 | 0.00 | 56 | 1015.3 |
| 20260502100301 | 42 | 207 | 3.5 | 3.5 | 0.00 | 0.00 | 0.00 | 58 | 1015.1 |
| 20260502091235 | 42 | 212 | 4.3 | 5.2 | 0.00 | 0.00 | 0.00 | 55 | 1014.5 |
| 20260502090732 | 41 | 205 | 5.2 | 7.0 | 0.00 | 0.00 | 0.00 | 55 | 1014.6 |
| 20260502090228 | 41 | 214 | 5.2 | 6.1 | 0.00 | 0.00 | 0.00 | 54 | 1014.6 |
| 20260502071129 | 43 | 222 | 1.7 | 1.7 | 0.00 | 0.00 | 0.00 | 47 | 1014.4 |
| 20260502070627 | 43 | 243 | 1.7 | 2.6 | 0.00 | 0.00 | 0.00 | 46 | 1014.4 |
| 20260502070125 | 43 | 236 | 1.7 | 1.7 | 0.00 | 0.00 | 0.00 | 46 | 1014.3 |
| 20260502065623 | 43 | 227 | 2.6 | 2.6 | 0.00 | 0.00 | 0.00 | 46 | 1014.5 |
| 20260502065120 | 43 | 229 | 1.7 | 1.7 | 0.00 | 0.00 | 0.00 | 46 | 1014.3 |
| 20260502064619 | 42 | 222 | 1.7 | 1.7 | 0.00 | 0.00 | 0.00 | 47 | 1014.2 |
| 20260502064116 | 45 | 219 | 0.9 | 1.7 | 0.00 | 0.00 | 0.00 | 47 | 1014.3 |
| 20260502063614 | 46 | 225 | 3.5 | 3.5 | 0.00 | 0.00 | 0.00 | 40 | 1014.2 |
| 20260502063111 | 41 | 348 | 10.4 | 12.2 | 0.00 | 0.00 | 0.00 | 47 | 1014.3 |
| 20260502062608 | 41 | 257 | 0.0 | 0.0 | 0.00 | 0.00 | 0.00 | 50 | 1014.1 |
| 20260502062106 | 41 | 232 | 1.7 | 1.7 | 0.00 | 0.00 | 0.00 | 49 | 1014.1 |
| 20260502061604 | 43 | 232 | 2.6 | 3.5 | 0.00 | 0.00 | 0.00 | 47 | 1014.0 |
| 20260502061102 | 43 | 252 | 0.9 | 0.9 | 0.00 | 0.00 | 0.00 | 46 | 1014.0 |
| 20260502060601 | 45 | 267 | 0.9 | 1.7 | 0.00 | 0.00 | 0.00 | 45 | 1014.0 |
| 20260502060059 | 44 | 235 | 2.6 | 2.6 | 0.00 | 0.00 | 0.00 | 44 | 1014.3 |
| 20260502055556 | 44 | 263 | 1.7 | 2.6 | 0.00 | 0.00 | 0.00 | 45 | 1014.1 |
| 20260502055054 | 45 | 239 | 3.5 | 3.5 | 0.00 | 0.00 | 0.00 | 43 | 1014.0 |
| 20260502054553 | 44 | 237 | 2.6 | 2.6 | 0.00 | 0.00 | 0.00 | 45 | 1014.0 |
| 20260502054049 | 43 | 237 | 1.7 | 1.7 | 0.00 | 0.00 | 0.00 | 45 | 1014.0 |
| 20260502053547 | 43 | 242 | 2.6 | 2.6 | 0.00 | 0.00 | 0.00 | 46 | 1014.1 |
| 20260502053044 | 44 | 261 | 1.7 | 1.7 | 0.00 | 0.00 | 0.00 | 44 | 1014.1 |
| 20260502052543 | 45 | 264 | 1.7 | 1.7 | 0.00 | 0.00 | 0.00 | 43 | 1013.8 |
| 20260502052040 | 46 | 265 | 0.9 | 1.7 | 0.00 | 0.00 | 0.00 | 42 | 1014.0 |
| 20260502051538 | 46 | 247 | 1.7 | 2.6 | 0.00 | 0.00 | 0.00 | 42 | 1013.7 |
| 20260502051036 | 46 | 240 | 2.6 | 2.6 | 0.00 | 0.00 | 0.00 | 41 | 1014.0 |
| 20260502050531 | 47 | 235 | 3.5 | 3.5 | 0.00 | 0.00 | 0.00 | 41 | 1013.7 |
| 20260502050029 | 46 | 214 | 3.5 | 5.2 | 0.00 | 0.00 | 0.00 | 41 | 1013.7 |
| 20260502045525 | 44 | 214 | 3.5 | 3.5 | 0.00 | 0.00 | 0.00 | 42 | 1013.4 |
| 20260502045023 | 44 | 210 | 2.6 | 3.5 | 0.00 | 0.00 | 0.00 | 47 | 1013.6 |
| 20260502044519 | 43 | 205 | 3.5 | 5.2 | 0.00 | 0.00 | 0.00 | 45 | 1013.8 |
| 20260502044016 | 44 | 209 | 3.5 | 3.5 | 0.00 | 0.00 | 0.00 | 46 | 1013.6 |
| 20260502043513 | 44 | 213 | 2.6 | 3.5 | 0.00 | 0.00 | 0.00 | 46 | 1013.6 |
| 20260502043009 | 44 | 217 | 1.7 | 2.6 | 0.00 | 0.00 | 0.00 | 45 | 1013.7 |
| 20260502042504 | 46 | 222 | 2.6 | 2.6 | 0.00 | 0.00 | 0.00 | 43 | 1013.7 |
| 20260502042002 | 49 | 218 | 3.5 | 3.5 | 0.00 | 0.00 | 0.00 | 40 | 1013.6 |
| 20260502041500 | 52 | 226 | 2.6 | 2.6 | 0.00 | 0.00 | 0.00 | 35 | 1013.6 |
| 20260502040956 | 55 | 258 | 0.9 | 1.7 | 0.00 | 0.00 | 0.00 | 32 | 1013.6 |
| 20260502040453 | 55 | 272 | 1.7 | 2.6 | 0.00 | 0.00 | 0.00 | 31 | 1013.3 |
| 20260502035949 | 56 | 290 | 4.3 | 5.2 | 0.00 | 0.00 | 0.00 | 30 | 1013.5 |
| 20260502035445 | 57 | 284 | 3.5 | 3.5 | 0.00 | 0.00 | 0.00 | 30 | 1013.3 |
| 20260502034944 | 57 | 289 | 4.3 | 5.2 | 0.00 | 0.00 | 0.00 | 29 | 1013.3 |
| 20260502034442 | 56 | 287 | 4.3 | 5.2 | 0.00 | 0.00 | 0.00 | 30 | 1013.4 |
| 20260502033940 | 56 | 287 | 1.7 | 2.6 | 0.00 | 0.00 | 0.00 | 29 | 1013.5 |
| 20260502033437 | 56 | 261 | 1.7 | 2.6 | 0.00 | 0.00 | 0.00 | 29 | 1013.3 |
| 20260502032934 | 57 | 272 | 1.7 | 2.6 | 0.00 | 0.00 | 0.00 | 29 | 1013.4 |
| 20260502032430 | 57 | 272 | 1.7 | 2.6 | 0.00 | 0.00 | 0.00 | 28 | 1013.3 |
| 20260502031927 | 56 | 286 | 1.7 | 2.6 | 0.00 | 0.00 | 0.00 | 29 | 1013.3 |
| 20260502031426 | 57 | 285 | 3.5 | 5.2 | 0.00 | 0.00 | 0.00 | 28 | 1013.2 |
| 20260502030924 | 56 | 284 | 2.6 | 2.6 | 0.00 | 0.00 | 0.00 | 28 | 1013.1 |
| 20260502030422 | 56 | 286 | 2.6 | 2.6 | 0.00 | 0.00 | 0.00 | 28 | 1013.0 |
| 20260502025920 | 56 | 280 | 0.9 | 1.7 | 0.00 | 0.00 | 0.00 | 29 | 1012.9 |
| 20260502025416 | 57 | 279 | 0.9 | 0.9 | 0.00 | 0.00 | 0.00 | 28 | 1012.6 |
| 20260502024914 | 55 | 258 | 0.0 | 0.0 | 0.00 | 0.00 | 0.00 | 29 | 1012.8 |
| 20260502024412 | 56 | 251 | 0.9 | 1.7 | 0.00 | 0.00 | 0.00 | 29 | 1012.8 |
| 20260502023910 | 58 | 269 | 0.9 | 0.9 | 0.00 | 0.00 | 0.00 | 27 | 1012.6 |
| 20260502023407 | 59 | 273 | 0.9 | 1.7 | 0.00 | 0.00 | 0.00 | 27 | 1012.6 |
| 20260502022905 | 61 | 281 | 0.0 | 0.0 | 0.00 | 0.00 | 0.00 | 26 | 1012.5 |
| 20260502022400 | 63 | 283 | 0.9 | 0.9 | 0.00 | 0.00 | 0.00 | 24 | 1012.6 |
| 20260502021857 | 64 | 280 | 0.9 | 0.9 | 0.00 | 0.00 | 0.00 | 24 | 1012.5 |
| 20260502021355 | 64 | 260 | 1.7 | 1.7 | 0.00 | 0.00 | 0.00 | 23 | 1012.6 |
| 20260502020852 | 66 | 270 | 0.9 | 1.7 | 0.00 | 0.00 | 0.00 | 24 | 1012.5 |
| 20260502020350 | 68 | 274 | 2.6 | 2.6 | 0.00 | 0.00 | 0.00 | 21 | 1012.5 |
| 20260502015847 | 70 | 269 | 3.5 | 3.5 | 0.00 | 0.00 | 0.00 | 19 | 1012.6 |
| 20260502015344 | 70 | 279 | 2.6 | 2.6 | 0.00 | 0.00 | 0.00 | 20 | 1012.4 |
| 20260502014841 | 70 | 273 | 0.9 | 1.7 | 0.00 | 0.00 | 0.00 | 20 | 1012.4 |
| 20260502014338 | 71 | 290 | 1.7 | 2.6 | 0.00 | 0.00 | 0.00 | 19 | 1012.4 |